Location: Black Swamp Observatory
(41.3920°N, 84.1250°W)
Time: 15:51:57
(UTC-04:00)

Amateur Radio Satellites - All Passes

Search period start: 31 May 2016 15:21
Search period end: 01 June 2016 15:21
Location: Black Swamp Observatory, 41.3920°N, 84.1250°W

Satellite Date Start Highest point End Downlink Frequencies (MHz)
Time Altitude Azimuth
ITUPSAT 1 31 May 15:23:49 15:28:10 33° 97° (E) 15:32:29 437.325
RS-15 31 May 15:26:34 15:30:59 13° 93° (E) 15:35:27 29.354- 29.394
TISAT 1 31 May 15:42:58 15:46:24 25° 292° (WNW) 15:49:50 437.305
BEESAT 31 May 15:44:13 15:48:55 54° 100° (E) 15:53:37 436.000
ITAMSAT 1 31 May 16:01:06 16:06:10 55° 259° (W) 16:11:16 435.822/435.867
Gurwin Techsat 1B 31 May 16:09:17 16:13:05 20° 268° (W) 16:16:55 435.225
MOZHAYETS 4 31 May 16:18:44 16:20:30 12° 89° (E) 16:22:16
AO-7 31 May 16:21:42 16:30:00 88° 71° (ENE) 16:38:23 29.400- 29.500
YUBILEINY 31 May 16:50:01 16:58:40 78° 95° (E) 17:07:23 435.215
Cosmos 2491 31 May 16:52:49 17:01:02 47° 272° (W) 17:09:12 435.465 / 435.565
SWISSCUBE 31 May 16:53:12 16:57:18 29° 293° (WNW) 17:01:24 437.505
ITUPSAT 1 31 May 17:01:50 17:05:52 27° 293° (WNW) 17:09:53 437.325
Cosmos 2504 31 May 17:03:26 17:09:03 24° 81° (E) 17:14:53 435.465 / 435.565
KKS-1 31 May 17:06:12 17:10:30 48° 100° (E) 17:14:46 437.445
NOAA 15 31 May 17:06:46 17:08:13 11° 57° (ENE) 17:09:40 137.62
BEESAT 31 May 17:23:10 17:26:16 17° 297° (WNW) 17:29:23 436.000
Cubesat XI-IV 31 May 17:27:09 17:28:57 12° 57° (ENE) 17:30:44 437.490
RS-15 31 May 17:29:40 17:40:45 66° 115° (ESE) 17:52:30 29.354- 29.394
STARS 31 May 17:29:54 17:34:05 43° 99° (E) 17:38:15 437.465
HORYU 2 31 May 17:30:31 17:34:56 81° 74° (ENE) 17:39:22 437.375
MOZHAYETS 4 31 May 17:53:30 17:58:07 68° 285° (WNW) 18:02:43
CUBESAT XI-V 31 May 17:55:19 17:57:59 15° 90° (E) 18:00:37 437.345
BRITE-PL 31 May 17:56:38 18:01:13 26° 66° (ENE) 18:05:47 437.365/2234.400
LilacSat-2 31 May 17:57:38 17:59:16 13° 65° (ENE) 18:00:56 437.200
NOAA 18 31 May 17:58:19 18:02:54 28° 65° (ENE) 18:07:29 137.9125
GOMX 1 31 May 18:00:55 18:03:26 13° 61° (ENE) 18:05:56 467.674
CUTE-I 31 May 18:08:50 18:13:16 28° 65° (ENE) 18:17:42 437.470
PCSat 31 May 18:16:11 18:21:17 39° 53° (NE) 18:26:20 145.827
AO-7 31 May 18:18:21 18:23:44 19° 269° (W) 18:29:12 29.400- 29.500
DOVE 4 31 May 18:28:44 18:29:53 11° 61° (ENE) 18:31:01 437.250
O/OREOS (USA 219) 31 May 18:30:30 18:33:58 21° 57° (ENE) 18:37:25 437.305
NOAA 15 31 May 18:41:47 18:47:05 79° 75° (ENE) 18:52:26 137.62
KKS-1 31 May 18:43:51 18:46:41 17° 296° (WNW) 18:49:30 437.445
YUBILEINY 31 May 18:49:56 18:56:27 23° 296° (WNW) 19:03:01 435.215
HO-68 31 May 18:53:28 18:57:07 15° 51° (NE) 19:00:45 435.675
Cosmos 2504 31 May 18:54:33 19:01:42 60° 282° (WNW) 19:09:22 435.465 / 435.565
BEESAT 2 31 May 18:57:52 18:58:58 11° 38° (NE) 19:00:03 435.950
Cubesat XI-IV 31 May 19:02:51 19:08:10 83° 73° (ENE) 19:13:31 437.490
STARS 31 May 19:07:12 19:10:07 18° 296° (WNW) 19:13:02 437.465
BEESAT 3 31 May 19:22:03 19:25:25 26° 48° (NE) 19:28:46 437.485
LilacSat-2 31 May 19:29:31 19:33:11 47° 261° (W) 19:36:51 437.200
CUBESAT XI-V 31 May 19:31:05 19:35:43 56° 286° (WNW) 19:40:17 437.345
BRITE-PL 31 May 19:33:52 19:39:21 48° 262° (W) 19:44:49 437.365/2234.400
GOMX 1 31 May 19:35:20 19:40:49 88° 257° (WSW) 19:46:08 467.674
NOAA 18 31 May 19:38:18 19:43:23 39° 261° (W) 19:48:28 137.9125
RS-15 31 May 19:43:07 19:53:56 44° 320° (NW) 20:05:20 29.354- 29.394
AUBIESAT-1 31 May 19:46:59 19:49:56 21° 64° (ENE) 19:52:45 437.475
CUTE-I 31 May 19:48:13 19:53:08 38° 262° (W) 19:58:05 437.470
M-CUBED/EXP-1 PRIME 31 May 19:57:02 20:00:39 33° 67° (ENE) 20:04:03 437.505
PCSat 31 May 19:59:49 20:04:32 31° 251° (WSW) 20:09:14 145.827
CINEMA 3 31 May 20:00:35 20:04:19 25° 69° (ENE) 20:07:56 145.822/145.860
DOVE 4 31 May 20:01:41 20:06:52 84° 77° (ENE) 20:11:49 437.250
O/OREOS (USA 219) 31 May 20:09:21 20:13:30 38° 254° (WSW) 20:17:38 437.305
SEEDS 31 May 20:11:51 20:14:56 20° 67° (ENE) 20:18:02 437.485
CANX-2 31 May 20:17:31 20:21:22 36° 71° (ENE) 20:25:15 2200.000
ISS 31 May 20:18:02 20:20:58 31° 136° (SE) 20:23:54 145.825
CUBEBUG 2 31 May 20:21:32 20:23:16 12° 63° (ENE) 20:24:59 437.445
NOAA 15 31 May 20:25:09 20:27:27 13° 271° (W) 20:29:46 137.62
BEESAT 2 31 May 20:33:29 20:37:29 80° 57° (ENE) 20:41:27 435.950
HO-68 31 May 20:36:31 20:43:37 73° 71° (ENE) 20:50:46 435.675
UWE-3 31 May 20:40:03 20:42:04 13° 64° (ENE) 20:44:05 435.000/436.395/437.385
CUTE 1.7 + AOD 2 31 May 20:43:31 20:47:40 63° 75° (ENE) 20:51:51 437.475
AAUSAT CUBESAT 2 31 May 20:46:49 20:50:20 27° 69° (ENE) 20:53:53 437.432
Cubesat XI-IV 31 May 20:46:58 20:48:51 12° 271° (W) 20:50:46 437.490
COMPASS 1 31 May 20:48:34 20:52:21 36° 71° (ENE) 20:56:11 437.405
GONETS M04 31 May 20:49:02 20:54:19 18° 77° (ENE) 20:59:36
BEESAT 3 31 May 20:59:39 21:03:05 29° 246° (WSW) 21:06:31 437.485
PHONESAT 2.4 31 May 21:01:21 21:03:58 24° 156° (SSE) 21:06:36 2401.200-2431.200
STRAND 1 31 May 21:01:35 21:06:46 87° 103° (ESE) 21:11:56 437.568
Oscar 11 31 May 21:07:06 21:10:14 20° 66° (ENE) 21:13:24 145.826/435.025
AIST 1 31 May 21:10:56 21:14:58 36° 92° (E) 21:19:01
GOMX 1 31 May 21:18:05 21:19:28 11° 272° (W) 21:20:52 467.674
AUBIESAT-1 31 May 21:20:47 21:24:18 29° 257° (WSW) 21:27:38 437.475
Cosmos 2499 31 May 21:26:15 21:30:16 16° 76° (ENE) 21:34:26 435.465 / 435.565
CUSAT 1 31 May 21:27:24 21:31:31 15° 56° (NE) 21:35:15 437.405
ZACube-1 31 May 21:29:51 21:33:31 30° 70° (ENE) 21:37:08 437.345
M-CUBED/EXP-1 PRIME 31 May 21:32:21 21:35:14 19° 259° (W) 21:38:00 437.505
CINEMA 3 31 May 21:37:09 21:41:19 32° 263° (W) 21:45:21 145.822/145.860
AIST 2 31 May 21:43:33 21:47:14 29° 49° (NE) 21:50:53 435.215
DOVE 4 31 May 21:43:35 21:45:02 11° 271° (W) 21:46:28 437.250
SEEDS 31 May 21:46:37 21:50:25 34° 263° (W) 21:54:15 437.485
ISS 31 May 21:54:21 21:57:22 34° 333° (NNW) 22:00:24 145.825
CANX-2 31 May 21:54:22 21:57:21 19° 267° (W) 22:00:21 2200.000
CUBEBUG 2 31 May 21:55:07 21:59:25 62° 260° (W) 22:03:36 437.445
RS-15 31 May 22:01:54 22:10:51 23° 353° (N) 22:20:04 29.354- 29.394
DANDE 31 May 22:02:17 22:07:36 18° 58° (ENE) 22:12:33 436.750
FUNcube-1 31 May 22:04:45 22:08:55 70° 75° (ENE) 22:13:03 145.935
DELFI C3 31 May 22:13:06 22:16:54 47° 73° (ENE) 22:20:45 145.870
UWE-3 31 May 22:13:55 22:18:06 55° 260° (W) 22:22:13 435.000/436.395/437.385
PRISM 31 May 22:18:42 22:22:52 74° 284° (WNW) 22:26:59 437.425
AAUSAT CUBESAT 2 31 May 22:22:27 22:25:47 24° 265° (W) 22:29:11 437.432
CUTE 1.7 + AOD 2 31 May 22:22:52 22:23:55 11° 271° (W) 22:24:59 437.475
COMPASS 1 31 May 22:25:08 22:28:03 18° 267° (W) 22:30:58 437.405
HO-68 31 May 22:26:51 22:31:57 21° 268° (W) 22:37:04 435.675
HUMSAT D 31 May 22:33:08 22:36:51 35° 71° (ENE) 22:40:35 437.325/437.525
PHONESAT 2.4 31 May 22:37:19 22:40:26 67° 172° (S) 22:43:34 2401.200-2431.200
GONETS M04 31 May 22:41:02 22:49:51 90° 122° (ESE) 22:58:40
Oscar 11 31 May 22:42:10 22:46:07 36° 262° (W) 22:50:07 145.826/435.025
STRAND 1 31 May 22:43:01 22:45:12 13° 301° (WNW) 22:47:22 437.568
AIST 1 31 May 22:49:31 22:52:42 19° 288° (WNW) 22:55:53
ZACube-1 31 May 23:06:32 23:09:49 22° 266° (W) 23:13:05 437.345
UNISAT 6 31 May 23:07:37 23:10:50 20° 94° (E) 23:14:04 437.425
CUSAT 1 31 May 23:07:39 23:15:11 80° 79° (E) 23:21:07 437.405
DX 1 31 May 23:11:46 23:13:16 12° 61° (ENE) 23:14:45 434.975-435.025
CUBEBUG 1 31 May 23:12:52 23:15:18 15° 63° (ENE) 23:17:44 437.445
TIGRISAT 31 May 23:13:24 23:16:46 22° 94° (E) 23:20:09 435.000
Cosmos 2499 31 May 23:14:42 23:22:01 89° 278° (W) 23:30:00 435.465 / 435.565
50 SAT 31 May 23:16:42 23:18:28 13° 65° (ENE) 23:20:14 437.505
AIST 2 31 May 23:22:06 23:25:39 27° 246° (WSW) 23:29:09 435.215
ESTCUBE 1 31 May 23:28:41 23:32:37 30° 69° (ENE) 23:36:34 437.505/2401.250
VELOX 1 31 May 23:31:17 23:34:43 22° 66° (ENE) 23:38:09 145.980
ISS 31 May 23:32:38 23:34:32 14° 353° (N) 23:36:27 145.825
DANDE 31 May 23:43:32 23:51:58 79° 79° (E) 23:59:08 436.750
ANTELSAT 31 May 23:47:51 23:52:07 54° 101° (E) 23:56:27 437.575/2403.000
UKube-1 31 May 23:49:52 23:53:17 23° 67° (ENE) 23:56:43 .
DELFI C3 31 May 23:50:10 23:52:02 13° 269° (W) 23:53:54 145.870
SO-50 01 Jun 00:06:38 00:11:26 58° 119° (ESE) 00:16:15 436.795
AISAT 01 Jun 00:06:55 00:11:16 54° 73° (ENE) 00:15:37 437.250
HUMSAT D 01 Jun 00:09:50 00:12:36 18° 267° (W) 00:15:23 437.325/437.525
PHONESAT 2.4 01 Jun 00:13:59 00:17:06 67° 188° (S) 00:20:13 2401.200-2431.200
RS-15 01 Jun 00:18:13 00:28:46 32° 29° (NNE) 00:39:24 29.354- 29.394
DUCHIFAT 1 01 Jun 00:22:28 00:25:35 20° 94° (E) 00:28:42 145.980
GONETS M04 01 Jun 00:42:01 00:47:56 19° 298° (WNW) 00:53:53
UNISAT 6 01 Jun 00:43:40 00:47:39 36° 289° (WNW) 00:51:40 437.425
DX 1 01 Jun 00:44:28 00:48:51 73° 258° (WSW) 00:53:15 434.975-435.025
CUBEBUG 1 01 Jun 00:46:44 00:51:06 57° 260° (W) 00:55:29 437.445
50 SAT 01 Jun 00:48:22 00:51:49 41° 261° (W) 00:55:19 437.505
TIGRISAT 01 Jun 00:49:37 00:53:30 33° 290° (WNW) 00:57:26 435.000
CUSAT 1 01 Jun 00:51:40 00:56:01 17° 282° (WNW) 00:59:54 437.405
SPROUT 01 Jun 00:51:47 00:56:01 62° 74° (ENE) 01:00:15 437.525
TISAT 1 01 Jun 00:59:21 01:02:31 21° 67° (ENE) 01:05:42 437.305
QB50P1 01 Jun 01:05:21 01:09:33 71° 101° (E) 01:13:44 145.935-145.965
POPSAT HIP 1 01 Jun 01:05:25 01:09:37 70° 101° (E) 01:13:48 437.405
ESTCUBE 1 01 Jun 01:05:37 01:09:23 26° 265° (W) 01:13:13 437.505/2401.250
VELOX 1 01 Jun 01:06:51 01:10:58 36° 263° (W) 01:15:05 145.980
QB50P2 01 Jun 01:09:22 01:13:37 83° 105° (ESE) 01:17:49 145.880/145.840
ISS 01 Jun 01:09:43 01:11:58 17° 14° (NNE) 01:14:12 145.825
Cosmos 2499 01 Jun 01:11:52 01:16:28 17° 299° (WNW) 01:21:18 435.465 / 435.565
POLYITAN 1 01 Jun 01:11:52 01:16:06 85° 103° (ESE) 01:20:18 437.675
NANOSAT C BR1 01 Jun 01:21:00 01:25:12 80° 284° (WNW) 01:29:23 145.865
JAS-2 01 Jun 01:22:43 01:28:20 24° 89° (E) 01:33:25 435.910
UKube-1 01 Jun 01:25:17 01:29:10 32° 263° (W) 01:33:04 .
ANTELSAT 01 Jun 01:26:03 01:28:25 15° 296° (WNW) 01:30:48 437.575/2403.000
DANDE 01 Jun 01:27:53 01:33:43 22° 280° (W) 01:39:03 436.750
Oscar 19 01 Jun 01:44:42 01:46:39 12° 89° (E) 01:48:34 437.125/150
AISAT 01 Jun 01:45:39 01:48:03 14° 269° (W) 01:50:28 437.250
SO-50 01 Jun 01:48:25 01:52:16 22° 317° (NW) 01:56:07 436.795
PHONESAT 2.4 01 Jun 01:50:57 01:53:34 24° 204° (SSW) 01:56:10 2401.200-2431.200
BUGSAT 1 01 Jun 01:55:14 01:59:15 75° 286° (WNW) 02:03:15 437.445
DUCHIFAT 1 01 Jun 01:57:36 02:01:21 33° 290° (WNW) 02:05:05 145.980
SWISSCUBE 01 Jun 02:21:48 02:26:07 36° 69° (ENE) 02:30:28 437.505
ITUPSAT 1 01 Jun 02:30:33 02:34:57 39° 69° (ENE) 02:39:22 437.325
SPROUT 01 Jun 02:30:57 02:32:21 11° 270° (W) 02:33:46 437.525
RS-15 01 Jun 02:31:06 02:43:31 81° 56° (ENE) 02:55:50 29.354- 29.394
TISAT 1 01 Jun 02:34:09 02:37:59 33° 263° (W) 02:41:49 437.305
QB50P1 01 Jun 02:43:40 02:44:44 11° 298° (WNW) 02:45:49 145.935-145.965
POPSAT HIP 1 01 Jun 02:43:40 02:44:50 11° 298° (WNW) 02:45:59 437.405
Gurwin Techsat 1B 01 Jun 02:44:38 02:48:32 20° 93° (E) 02:52:24 435.225
ISS 01 Jun 02:45:42 02:48:56 58° 33° (NNE) 02:52:09 145.825
BEESAT 01 Jun 02:50:29 02:55:10 63° 73° (ENE) 02:59:54 436.000
YUBILEINY 01 Jun 03:00:19 03:08:23 39° 72° (ENE) 03:16:25 435.215
JAS-2 01 Jun 03:06:45 03:13:56 61° 290° (WNW) 03:20:16 435.910
MOZHAYETS 4 01 Jun 03:21:13 03:23:07 12° 61° (ENE) 03:25:00
Oscar 19 01 Jun 03:21:22 03:26:33 79° 286° (WNW) 03:31:40 437.125/150
Cosmos 2491 01 Jun 03:57:12 04:05:21 44° 87° (E) 04:13:29 435.465 / 435.565
SWISSCUBE 01 Jun 04:00:09 04:03:59 24° 265° (W) 04:07:50 437.505
KKS-1 01 Jun 04:04:06 04:08:20 44° 72° (ENE) 04:12:36 437.445
ITUPSAT 1 01 Jun 04:09:13 04:12:54 22° 266° (W) 04:16:37 437.325
ITAMSAT 1 01 Jun 04:13:41 04:18:48 52° 100° (E) 04:23:53 435.822/435.867
ISS 01 Jun 04:22:59 04:25:04 16° 229° (SW) 04:27:07 145.825
Gurwin Techsat 1B 01 Jun 04:23:36 04:28:45 51° 289° (WNW) 04:33:52 435.225
AO-7 01 Jun 04:23:54 04:30:57 29° 95° (E) 04:37:57 29.400- 29.500
STARS 01 Jun 04:26:27 04:30:33 39° 71° (ENE) 04:34:39 437.465
BEESAT 01 Jun 04:31:02 04:33:23 14° 269° (W) 04:35:44 436.000
RS-15 01 Jun 04:44:53 04:54:46 30° 258° (WSW) 05:04:35 29.354- 29.394
Cosmos 2504 01 Jun 04:45:33 04:53:52 52° 76° (ENE) 05:02:28 435.465 / 435.565
JAS-2 01 Jun 04:54:43 04:57:17 12° 311° (NW) 04:59:47 435.910
MOZHAYETS 4 01 Jun 04:55:07 04:59:39 72° 258° (WSW) 05:04:15
YUBILEINY 01 Jun 04:57:03 05:05:16 47° 272° (W) 05:13:31 435.215
CUBESAT XI-V 01 Jun 04:58:59 05:01:47 16° 63° (ENE) 05:04:34 437.345
Oscar 19 01 Jun 05:04:04 05:04:59 10° 303° (WNW) 05:05:54 437.125/150
HORYU 2 01 Jun 05:22:41 05:25:16 15° 92° (E) 05:27:50 437.375
AO-85 01 Jun 05:32:58 05:38:15 53° 117° (ESE) 05:43:27 145.980
KKS-1 01 Jun 05:42:11 05:45:07 17° 267° (W) 05:48:03 437.445
Cosmos 2491 01 Jun 05:53:57 06:02:10 42° 287° (WNW) 06:10:25 435.465 / 435.565
ITAMSAT 1 01 Jun 05:54:04 05:57:52 21° 297° (WNW) 06:01:41 435.822/435.867
STARS 01 Jun 06:03:56 06:07:03 19° 266° (W) 06:10:11 437.465
AO-7 01 Jun 06:15:56 06:24:11 63° 293° (WNW) 06:32:23 29.400- 29.500
NOAA 18 01 Jun 06:22:44 06:23:46 10° 88° (E) 06:24:47 137.9125
CUBESAT XI-V 01 Jun 06:34:03 06:38:39 58° 260° (W) 06:43:19 437.345
Cosmos 2504 01 Jun 06:39:25 06:46:56 36° 275° (W) 06:54:42 435.465 / 435.565
STRAND 1 01 Jun 06:40:55 06:44:00 16° 61° (ENE) 06:47:05 437.568
NOAA 15 01 Jun 06:57:22 07:01:56 29° 96° (E) 07:06:28 137.62
HORYU 2 01 Jun 06:57:48 07:02:06 50° 288° (WNW) 07:06:24 437.375
SO-50 01 Jun 07:00:34 07:01:12 10° 31° (NNE) 07:01:51 436.795
LilacSat-2 01 Jun 07:03:33 07:06:07 17° 93° (E) 07:08:39 437.200
AO-85 01 Jun 07:14:24 07:19:02 28° 315° (NW) 07:23:32 145.980
Cubesat XI-IV 01 Jun 07:20:18 07:25:07 33° 97° (E) 07:29:55 437.490
GOMX 1 01 Jun 07:38:28 07:42:11 25° 93° (E) 07:45:44 467.674
BRITE-PL 01 Jun 07:39:21 07:44:15 60° 100° (E) 07:48:43 437.365/2234.400
NOAA 18 01 Jun 07:59:38 08:05:09 86° 105° (ESE) 08:10:40 137.9125
DOVE 4 01 Jun 08:01:53 08:05:00 19° 93° (E) 08:08:01 437.250
CUTE-I 01 Jun 08:04:33 08:09:57 84° 104° (ESE) 08:15:19 437.470
HO-68 01 Jun 08:07:20 08:09:58 12° 87° (E) 08:12:34 435.675
AO-7 01 Jun 08:11:04 08:15:19 15° 314° (NW) 08:19:35 29.400- 29.500
STRAND 1 01 Jun 08:17:34 08:22:37 66° 258° (WSW) 08:27:44 437.568
CUTE 1.7 + AOD 2 01 Jun 08:30:49 08:31:57 11° 89° (E) 08:33:05 437.475
NOAA 15 01 Jun 08:36:56 08:41:44 36° 292° (WNW) 08:46:30 137.62
LilacSat-2 01 Jun 08:37:06 08:40:29 31° 289° (WNW) 08:43:52 437.200
SO-50 01 Jun 08:38:15 08:42:51 51° 52° (NE) 08:47:17 436.795
O/OREOS (USA 219) 01 Jun 08:43:02 08:46:37 23° 102° (ESE) 08:50:11 437.305
GONETS M04 01 Jun 08:51:30 08:59:47 45° 74° (ENE) 09:08:00
AIST 1 01 Jun 08:54:56 08:59:16 75° 265° (W) 09:03:33
PCSat 01 Jun 08:58:09 09:02:57 33° 110° (ESE) 09:07:47 145.827
Cubesat XI-IV 01 Jun 09:00:23 09:05:07 33° 293° (WNW) 09:09:51 437.490
AUBIESAT-1 01 Jun 09:00:44 09:01:46 11° 98° (E) 09:02:48 437.475
Cosmos 2499 01 Jun 09:05:02 09:12:54 36° 71° (ENE) 09:20:51 435.465 / 435.565
PRISM 01 Jun 09:07:44 09:11:53 79° 74° (ENE) 09:16:04 437.425
M-CUBED/EXP-1 PRIME 01 Jun 09:10:50 09:13:14 19° 101° (E) 09:15:39 437.505
GOMX 1 01 Jun 09:16:23 09:20:17 29° 292° (WNW) 09:23:59 467.674
BRITE-PL 01 Jun 09:19:15 09:22:06 16° 299° (WNW) 09:24:50 437.365/2234.400
SEEDS 01 Jun 09:30:02 09:34:01 37° 97° (E) 09:37:58 437.485
CINEMA 3 01 Jun 09:31:08 09:35:13 55° 100° (E) 09:39:19 145.822/145.860
CANX-2 01 Jun 09:37:39 09:41:57 74° 101° (E) 09:46:15 2200.000
DOVE 4 01 Jun 09:38:58 09:42:50 33° 290° (WNW) 09:46:34 437.250
NOAA 18 01 Jun 09:42:18 09:45:03 14° 302° (WNW) 09:47:49 137.9125
CUBEBUG 2 01 Jun 09:46:01 09:49:29 24° 95° (E) 09:53:00 437.445
CUTE-I 01 Jun 09:46:36 09:49:16 14° 301° (WNW) 09:51:56 437.470
HO-68 01 Jun 09:51:33 09:58:46 76° 105° (ESE) 10:05:57 435.675
FUNcube-1 01 Jun 09:54:08 09:56:07 13° 91° (E) 09:58:07 145.935
UWE-3 01 Jun 10:03:28 10:07:03 26° 96° (E) 10:10:41 435.000/436.395/437.385
AAUSAT CUBESAT 2 01 Jun 10:03:39 10:07:45 50° 99° (E) 10:11:50 437.432
CUTE 1.7 + AOD 2 01 Jun 10:03:57 10:08:12 65° 285° (WNW) 10:12:27 437.475
COMPASS 1 01 Jun 10:06:16 10:10:30 69° 101° (ESE) 10:14:42 437.405
UNISAT 6 01 Jun 10:07:07 10:10:04 18° 66° (ENE) 10:13:00 437.425
TIGRISAT 01 Jun 10:12:40 10:15:46 20° 66° (ENE) 10:18:50 435.000
SO-50 01 Jun 10:19:43 10:22:54 18° 250° (WSW) 10:26:01 436.795
O/OREOS (USA 219) 01 Jun 10:21:39 10:25:48 34° 299° (WNW) 10:29:58 437.305
BEESAT 2 01 Jun 10:27:31 10:29:25 13° 109° (ESE) 10:31:18 435.950
Oscar 11 01 Jun 10:28:56 10:33:00 38° 98° (E) 10:37:04 145.826/435.025
CUSAT 1 01 Jun 10:29:39 10:33:24 15° 77° (ENE) 10:37:23 437.405
AUBIESAT-1 01 Jun 10:33:23 10:36:28 37° 292° (WNW) 10:39:35 437.475
PCSat 01 Jun 10:41:17 10:46:16 36° 308° (NW) 10:51:18 145.827
M-CUBED/EXP-1 PRIME 01 Jun 10:45:14 10:47:48 21° 296° (WNW) 10:50:22 437.505
ANTELSAT 01 Jun 10:46:44 10:50:52 47° 73° (ENE) 10:54:59 437.575/2403.000
GONETS M04 01 Jun 10:48:36 10:56:26 39° 274° (W) 11:04:15
BEESAT 3 01 Jun 10:49:47 10:53:29 41° 117° (ESE) 10:57:13 437.485
ZACube-1 01 Jun 10:53:17 10:57:30 65° 101° (E) 11:01:47 437.345
Cosmos 2499 01 Jun 10:57:53 11:06:16 54° 270° (W) 11:14:47 435.465 / 435.565
SEEDS 01 Jun 11:06:23 11:09:27 20° 294° (WNW) 11:12:31 437.485
CINEMA 3 01 Jun 11:10:04 11:11:55 13° 297° (WNW) 11:13:46 145.822/145.860
DANDE 01 Jun 11:11:59 11:15:06 14° 75° (ENE) 11:18:29 436.750
DUCHIFAT 1 01 Jun 11:15:05 11:17:42 16° 65° (ENE) 11:20:19 145.980
CANX-2 01 Jun 11:16:04 11:17:12 11° 298° (WNW) 11:18:20 2200.000
CUBEBUG 2 01 Jun 11:22:32 11:26:05 27° 291° (WNW) 11:29:42 437.445
DELFI C3 01 Jun 11:25:10 11:29:14 80° 101° (ESE) 11:33:16 145.870
FUNcube-1 01 Jun 11:28:32 11:32:39 53° 286° (WNW) 11:36:51 145.935
JAS-2 01 Jun 11:36:12 11:40:07 15° 52° (NE) 11:44:04 435.910
UWE-3 01 Jun 11:39:57 11:43:26 26° 291° (WNW) 11:46:59 435.000/436.395/437.385
AAUSAT CUBESAT 2 01 Jun 11:40:29 11:42:49 15° 296° (WNW) 11:45:09 437.432
HO-68 01 Jun 11:40:30 11:45:44 23° 303° (WNW) 11:51:00 435.675
UNISAT 6 01 Jun 11:42:26 11:46:30 40° 262° (W) 11:50:33 437.425
COMPASS 1 01 Jun 11:44:10 11:45:28 11° 298° (WNW) 11:46:47 437.405
TIGRISAT 01 Jun 11:48:14 11:52:13 36° 262° (W) 11:56:11 435.000
HUMSAT D 01 Jun 11:51:19 11:55:30 69° 102° (ESE) 11:59:43 437.325/437.525
QB50P1 01 Jun 11:57:35 12:01:41 52° 73° (ENE) 12:05:47 145.935-145.965
POPSAT HIP 1 01 Jun 11:57:43 12:01:49 51° 73° (ENE) 12:05:55 437.405
QB50P2 01 Jun 12:01:44 12:05:54 61° 75° (ENE) 12:10:05 145.880/145.840
BEESAT 2 01 Jun 12:02:54 12:06:47 54° 305° (NW) 12:10:43 435.950
POLYITAN 1 01 Jun 12:04:14 12:08:24 63° 75° (ENE) 12:12:35 437.675
Oscar 11 01 Jun 12:05:44 12:08:52 20° 294° (WNW) 12:12:00 145.826/435.025
CUSAT 1 01 Jun 12:07:12 12:14:01 80° 97° (E) 12:22:02 437.405
NANOSAT C BR1 01 Jun 12:12:48 12:17:00 74° 76° (ENE) 12:21:13 145.865
50 SAT 01 Jun 12:18:24 12:20:43 16° 93° (E) 12:23:02 437.505
ANTELSAT 01 Jun 12:25:25 12:27:51 15° 268° (W) 12:30:16 437.575/2403.000
BEESAT 3 01 Jun 12:28:24 12:31:21 20° 315° (NW) 12:34:20 437.485
ZACube-1 01 Jun 12:31:41 12:33:17 12° 297° (WNW) 12:34:54 437.345
DX 1 01 Jun 12:33:30 12:36:35 19° 94° (E) 12:39:37 434.975-435.025
CUBEBUG 1 01 Jun 12:35:44 12:39:21 25° 95° (E) 12:42:56 437.445
SPROUT 01 Jun 12:40:50 12:41:17 10° 89° (E) 12:41:44 437.525
BUGSAT 1 01 Jun 12:44:29 12:48:40 74° 75° (ENE) 12:52:49 437.445
DUCHIFAT 1 01 Jun 12:49:01 12:53:03 44° 261° (W) 12:57:05 145.980
DANDE 01 Jun 12:50:17 12:56:18 84° 98° (E) 13:04:03 436.750
VELOX 1 01 Jun 12:56:34 13:00:45 40° 99° (E) 13:04:54 145.980
ESTCUBE 1 01 Jun 12:57:02 13:01:35 64° 102° (ESE) 13:06:04 437.505/2401.250
Oscar 19 01 Jun 13:00:49 13:04:30 20° 63° (ENE) 13:08:10 437.125/150
UKube-1 01 Jun 13:11:52 13:15:56 39° 99° (E) 13:19:58 .
JAS-2 01 Jun 13:16:10 13:23:37 66° 71° (ENE) 13:31:25 435.910
AIST 2 01 Jun 13:18:49 13:22:52 57° 118° (ESE) 13:26:55 435.215
HUMSAT D 01 Jun 13:29:20 13:30:34 11° 298° (WNW) 13:31:48 437.325/437.525
AISAT 01 Jun 13:33:15 13:37:40 75° 286° (WNW) 13:42:02 437.250
QB50P1 01 Jun 13:35:43 13:37:45 13° 269° (W) 13:39:48 145.935-145.965
POPSAT HIP 1 01 Jun 13:35:48 13:37:54 13° 269° (W) 13:39:59 437.405
QB50P2 01 Jun 13:40:50 13:42:06 11° 270° (W) 13:43:22 145.880/145.840
POLYITAN 1 01 Jun 13:43:33 13:44:37 11° 270° (W) 13:45:41 437.675
50 SAT 01 Jun 13:51:09 13:54:33 33° 289° (WNW) 13:57:56 437.505
CUSAT 1 01 Jun 13:51:43 13:57:10 23° 298° (WNW) 14:03:08 437.405
ITAMSAT 1 01 Jun 13:57:01 13:58:14 11° 57° (ENE) 13:59:28 435.822/435.867
AO-85 01 Jun 14:05:27 14:09:56 42° 50° (NE) 14:14:00 145.980
Gurwin Techsat 1B 01 Jun 14:05:31 14:10:13 33° 67° (ENE) 14:14:56 435.225
Cosmos 2491 01 Jun 14:07:54 14:14:15 21° 63° (ENE) 14:20:30 435.465 / 435.565
DX 1 01 Jun 14:08:51 14:12:55 39° 290° (WNW) 14:16:56 434.975-435.025
CUBEBUG 1 01 Jun 14:11:51 14:15:36 29° 291° (WNW) 14:19:19 437.445
SPROUT 01 Jun 14:13:26 14:17:41 67° 284° (WNW) 14:21:52 437.525
TISAT 1 01 Jun 14:17:42 14:21:32 34° 98° (E) 14:25:19 437.305
VELOX 1 01 Jun 14:33:47 14:36:56 19° 295° (WNW) 14:40:03 145.980
ESTCUBE 1 01 Jun 14:35:34 14:37:49 14° 298° (WNW) 14:40:06 437.505/2401.250
DANDE 01 Jun 14:35:48 14:40:25 19° 302° (WNW) 14:45:42 436.750
Oscar 19 01 Jun 14:38:19 14:43:23 54° 260° (W) 14:48:30 437.125/150
UKube-1 01 Jun 14:48:38 14:51:42 19° 295° (WNW) 14:54:45 .
BEESAT 01 Jun 14:51:47 14:54:42 16° 92° (E) 14:57:36 436.000
AIST 2 01 Jun 14:58:55 15:01:41 17° 317° (NW) 15:04:28 435.215
JAS-2 01 Jun 15:02:55 15:09:06 27° 270° (W) 15:15:32 435.910
